Terminal Aerodrome Forecast
Issued by NWS Twin Cities, MN

Home | Current Version | Previous Version | Text Only | Print | Product List | Glossary On
Versions: 1 2 3 4 5 6 7 8 9 10 11 12 13 14 15 16 17 18 19 20
000
FTUS43 KMPX 301120
TAFEAU
TAF
KEAU 301120Z 3012/3112 01012KT P6SM SCT020 OVC100
     FM301400 02013G21KT P6SM FEW050 SCT250
     FM310100 03009KT P6SM FEW250=

USA.gov is the U.S. government's official web portal to all federal, state and local government web resources and services.